TimeMDT,TemperatureF,Dew PointF,Humidity,Sea Level PressureIn,VisibilityMPH,Wind Direction,Wind SpeedMPH,Gust SpeedMPH,PrecipitationIn,Events,Conditions,WindDirDegrees,DateUTC
2:45 AM,80,40,14,29.80,12,West,4.5,,,,,270,2012-10-07 08:45:00
5:50 AM,72,44,25,29.78,12,West,4.5,,,,,270,2012-10-07 11:50:00
7:08 AM,73.4,53.6,50,29.78,8.0,WNW,9.2,-,N/A,,Clear,300,2012-10-07 13:08:00
7:48 AM,71.6,57.2,60,29.79,8.0,Calm,Calm,-,N/A,,Clear,0,2012-10-07 13:48:00
8:50 AM,78,47,23,29.82,12,WNW,4.5,,,,,300,2012-10-07 14:50:00
8:50 AM,77.0,59.0,54,29.81,8.0,Calm,Calm,-,N/A,,Clear,0,2012-10-07 14:50:00
9:44 AM,80.6,62.6,54,29.82,8.0,Calm,Calm,-,N/A,,Clear,0,2012-10-07 15:44:00
10:48 AM,82.4,59.0,45,29.84,8.0,Calm,Calm,-,N/A,,Clear,0,2012-10-07 16:48:00
11:40 AM,90,47,14,29.84,12,SSE,2.2,,,,,160,2012-10-07 17:40:00
11:46 AM,84.2,60.8,45,29.84,8.0,Calm,Calm,-,N/A,,Clear,0,2012-10-07 17:46:00
12:58 PM,87.8,62.6,43,29.82,8.0,Calm,Calm,-,N/A,,Clear,0,2012-10-07 18:58:00
1:44 PM,89.6,73.4,59,29.80,8.0,Calm,Calm,-,N/A,,Clear,0,2012-10-07 19:44:00
2:30 PM,94,54,17,29.79,12,ENE,4.5,,,,,60,2012-10-07 20:30:00
2:45 PM,89.6,64.4,43,29.78,8.0,NNE,9.2,-,N/A,,Clear,30,2012-10-07 20:45:00
3:42 PM,91.4,64.4,41,29.77,8.0,North,9.2,-,N/A,,Clear,360,2012-10-07 21:42:00
4:47 PM,89.6,73.4,59,29.76,8.0,North,9.2,-,N/A,,Clear,360,2012-10-07 22:47:00
5:44 PM,91.4,68.0,46,29.78,8.0,North,9.2,-,N/A,,Clear,360,2012-10-07 23:44:00
5:45 PM,90,61,27,29.78,12,ENE,4.5,,,,,60,2012-10-07 23:45:00
6:42 PM,91.4,68.0,46,29.78,8.0,Calm,Calm,-,N/A,,Clear,0,2012-10-08 00:42:00
8:45 PM,82,65,48,29.82,12,Calm,Calm,,,,,,2012-10-08 02:45:00